,,,PA_Meas_PMT16A,,PR_Meas_QMR101_102,,RH_Meas_QMH101,,SR_Meas_QMS101,,TA_Meas_QMH101,,GenWind,,GenWind,
date,time,status,PA,status,PR,status,RH,status,SR,status,TA,status,DirAvg,status,SpdAvg,
2010-01-29, 00:00:04,VALID,1004.62,VALID,0,VALID,86.214,VALID,0,VALID,25.3195,VALID,356,VALID,0.21875,
2010-01-29, 00:01:04,VALID,1004.6,VALID,0,VALID,86.2598,VALID,0,VALID,25.3195,VALID,262,VALID,0.448047,
2010-01-29, 00:02:04,VALID,1004.62,VALID,0,VALID,86.3132,VALID,0,VALID,25.2786,VALID,262,VALID,0.00195313,
2010-01-29, 00:03:04,VALID,1004.64,VALID,0,VALID,86.3666,VALID,0,VALID,25.3,VALID,346,VALID,0.227734,
2010-01-29, 00:04:04,VALID,1004.62,VALID,0,VALID,86.4352,VALID,0,VALID,25.3019,VALID,333,VALID,0.294922,
2010-01-29, 00:05:04,VALID,1004.62,VALID,0,VALID,86.5344,VALID,0,VALID,25.2416,VALID,300,VALID,0.00195313,
2010-01-29, 00:06:04,VALID,1004.62,VALID,0,VALID,86.5191,VALID,0,VALID,25.2416,VALID,278,VALID,0.958203,
2010-01-29, 00:07:04,VALID,1004.6,VALID,0,VALID,86.4581,VALID,0,VALID,25.2592,VALID,268,VALID,0.833594,
2010-01-29, 00:08:04,VALID,1004.6,VALID,0,VALID,86.4657,VALID,0,VALID,25.2806,VALID,270,VALID,0.0789063,
2010-01-29, 00:09:04,VALID,1004.6,VALID,0,VALID,86.481,VALID,0,VALID,25.2806,VALID,335,VALID,0.378516,
2010-01-29, 00:10:04,VALID,1004.58,VALID,0,VALID,86.42,VALID,0,VALID,25.2806,VALID,355,VALID,0.484375,
2010-01-29, 00:11:04,VALID,1004.55,VALID,0,VALID,86.3437,VALID,0,VALID,25.2592,VALID,351,VALID,0.492578,
2010-01-29, 00:12:04,VALID,1004.55,VALID,0,VALID,86.4581,VALID,0,VALID,25.2611,VALID,327,VALID,0.171875,
2010-01-29, 00:13:04,VALID,1004.57,VALID,0,VALID,86.4657,VALID,0,VALID,25.2397,VALID,325,VALID,0.203125,
2010-01-29, 00:14:04,VALID,1004.53,VALID,0,VALID,86.6107,VALID,0.100563,VALID,25.2397,VALID,325,VALID,0,
2010-01-29, 00:15:04,VALID,1004.55,VALID,0,VALID,86.7099,VALID,0.100563,VALID,25.2397,VALID,309,VALID,0.588281,
2010-01-29, 00:16:04,VALID,1004.54,VALID,0,VALID,86.6717,VALID,0.100563,VALID,25.2397,VALID,300,VALID,0.520312,
2010-01-29, 00:17:04,VALID,1004.54,VALID,0,VALID,86.5496,VALID,0,VALID,25.2592,VALID,330,VALID,0.471484,
2010-01-29, 00:18:04,VALID,1004.52,VALID,0,VALID,86.42,VALID,0.100563,VALID,25.2572,VALID,328,VALID,0.163672,
2010-01-29, 00:19:04,VALID,1004.48,VALID,0,VALID,86.4428,VALID,0.100563,VALID,25.2981,VALID,303,VALID,0.941406,
2010-01-29, 00:20:04,VALID,1004.5,VALID,0,VALID,86.3818,VALID,0.100563,VALID,25.3176,VALID,354,VALID,0.258594,
2010-01-29, 00:21:04,VALID,1004.5,VALID,0,VALID,86.1835,VALID,0.100563,VALID,25.337,VALID,293,VALID,1.14336,
2010-01-29, 00:22:04,VALID,1004.46,VALID,0,VALID,85.9088,VALID,0.100563,VALID,25.3935,VALID,303,VALID,0.396094,
2010-01-29, 00:23:04,VALID,1004.52,VALID,0,VALID,85.741,VALID,0.100563,VALID,25.4344,VALID,287,VALID,0.558203,
2010-01-29, 00:24:04,VALID,1004.48,VALID,0,VALID,85.6418,VALID,0.100563,VALID,25.4734,VALID,319,VALID,0.320703,
2010-01-29, 00:25:04,VALID,1004.48,VALID,0,VALID,85.535,VALID,0.100563,VALID,25.4734,VALID,297,VALID,0.821875,
2010-01-29, 00:26:04,VALID,1004.45,VALID,0,VALID,85.4969,VALID,0.100563,VALID,25.4928,VALID,3,VALID,0.676953,
2010-01-29, 00:27:04,VALID,1004.46,VALID,0,VALID,85.4816,VALID,0.100563,VALID,25.5123,VALID,349,VALID,0.607031,
2010-01-29, 00:28:04,VALID,1004.47,VALID,0,VALID,85.3519,VALID,0.100563,VALID,25.5123,VALID,333,VALID,1.01719,
2010-01-29, 00:29:04,VALID,1004.49,VALID,0,VALID,85.329,VALID,0,VALID,25.5142,VALID,358,VALID,0.476953,
2010-01-29, 00:30:04,VALID,1004.48,VALID,0,VALID,85.4435,VALID,0,VALID,25.5142,VALID,357,VALID,0.651563,
2010-01-29, 00:31:04,VALID,1004.46,VALID,0,VALID,85.3901,VALID,0,VALID,25.4734,VALID,353,VALID,1.09375,
2010-01-29, 00:32:04,VALID,1004.45,VALID,0,VALID,85.535,VALID,0,VALID,25.4948,VALID,337,VALID,0.231641,
2010-01-29, 00:33:04,VALID,1004.46,VALID,0,VALID,85.5503,VALID,0,VALID,25.4753,VALID,308,VALID,0.626953,
2010-01-29, 00:34:04,VALID,1004.43,VALID,0,VALID,85.6418,VALID,0,VALID,25.4558,VALID,2,VALID,0.372656,
2010-01-29, 00:35:04,VALID,1004.42,VALID,0,VALID,85.6876,VALID,0,VALID,25.4363,VALID,340,VALID,0.646484,
2010-01-29, 00:36:04,VALID,1004.39,VALID,0,VALID,85.7334,VALID,0,VALID,25.4169,VALID,335,VALID,0.490625,
2010-01-29, 00:37:04,VALID,1004.39,VALID,0,VALID,85.8478,VALID,0,VALID,25.3779,VALID,346,VALID,0.282813,
2010-01-29, 00:38:04,VALID,1004.38,VALID,0,VALID,85.9546,VALID,0,VALID,25.339,VALID,360,VALID,0.781641,
2010-01-29, 00:39:04,VALID,1004.35,VALID,0,VALID,85.8631,VALID,0,VALID,25.339,VALID,334,VALID,0.765234,
2010-01-29, 00:40:04,VALID,1004.32,VALID,0,VALID,85.9165,VALID,0,VALID,25.339,VALID,312,VALID,0.739062,
2010-01-29, 00:41:04,VALID,1004.34,VALID,0,VALID,86.0385,VALID,0,VALID,25.3,VALID,357,VALID,0.840234,
2010-01-29, 00:42:04,VALID,1004.35,VALID,0,VALID,86.0156,VALID,0,VALID,25.2981,VALID,359,VALID,0.828516,
2010-01-29, 00:43:04,VALID,1004.34,VALID,0,VALID,86.0843,VALID,0,VALID,25.2611,VALID,30,VALID,0.187891,
2010-01-29, 00:44:04,VALID,1004.38,VALID,0,VALID,86.1682,VALID,0,VALID,25.2806,VALID,280,VALID,0.404687,
2010-01-29, 00:45:04,VALID,1004.37,VALID,0,VALID,86.1835,VALID,0,VALID,25.2611,VALID,348,VALID,0.258984,
2010-01-29, 00:46:04,VALID,1004.36,VALID,0,VALID,86.1148,VALID,0,VALID,25.2202,VALID,340,VALID,0.394531,
2010-01-29, 00:47:04,VALID,1004.32,VALID,0,VALID,85.9851,VALID,0.100563,VALID,25.2202,VALID,360,VALID,0.670313,
2010-01-29, 00:48:04,VALID,1004.34,VALID,0,VALID,85.947,VALID,0.100563,VALID,25.2397,VALID,357,VALID,0.834375,
2010-01-29, 00:49:04,VALID,1004.3,VALID,0,VALID,85.6647,VALID,0,VALID,25.2202,VALID,350,VALID,1.56914,
2010-01-29, 00:50:04,VALID,1004.32,VALID,0,VALID,85.4435,VALID,0,VALID,25.2611,VALID,356,VALID,0.942578,
2010-01-29, 00:51:04,VALID,1004.32,VALID,0,VALID,85.474,VALID,0,VALID,25.2786,VALID,314,VALID,0.107031,
2010-01-29, 00:52:04,VALID,1004.32,VALID,0,VALID,85.1078,VALID,0,VALID,25.2981,VALID,352,VALID,0.789063,
2010-01-29, 00:53:04,VALID,1004.37,VALID,0,VALID,85.1002,VALID,0,VALID,25.3176,VALID,352,VALID,0.150781,
2010-01-29, 00:54:04,VALID,1004.36,VALID,0,VALID,85.1459,VALID,0,VALID,25.3176,VALID,277,VALID,0.380469,
2010-01-29, 00:55:04,VALID,1004.36,VALID,0,VALID,85.1307,VALID,0,VALID,25.3195,VALID,282,VALID,0.894141,
2010-01-29, 00:56:04,VALID,1004.34,VALID,0,VALID,85.0696,VALID,0,VALID,25.2981,VALID,339,VALID,0.59375,
2010-01-29, 00:57:04,VALID,1004.31,VALID,0,VALID,85.0696,VALID,0,VALID,25.3195,VALID,349,VALID,0.555078,
2010-01-29, 00:58:04,VALID,1004.32,VALID,0,VALID,85.0696,VALID,0,VALID,25.3,VALID,300,VALID,0.320703,
2010-01-29, 00:59:04,VALID,1004.31,VALID,0,VALID,85.0086,VALID,0,VALID,25.3,VALID,349,VALID,0.805078,
2010-01-29, 01:00:04,VALID,1004.29,VALID,0,VALID,85.0925,VALID,0,VALID,25.2786,VALID,267,VALID,0.266797,
2010-01-29, 01:01:04,VALID,1004.31,VALID,0,VALID,85.207,VALID,0,VALID,25.3,VALID,267,VALID,0.132031,
2010-01-29, 01:02:04,VALID,1004.29,VALID,0,VALID,85.2222,VALID,0,VALID,25.2806,VALID,355,VALID,0.254687,
2010-01-29, 01:03:04,VALID,1004.27,VALID,0,VALID,85.2604,VALID,0,VALID,25.2397,VALID,355,VALID,0.964453,
2010-01-29, 01:04:04,VALID,1004.27,VALID,0,VALID,85.2146,VALID,0,VALID,25.2611,VALID,308,VALID,0.460938,
2010-01-29, 01:05:04,VALID,1004.23,VALID,0,VALID,85.1612,VALID,0,VALID,25.2611,VALID,309,VALID,0.158594,
2010-01-29, 01:06:04,VALID,1004.21,VALID,0,VALID,85.2146,VALID,0,VALID,25.2611,VALID,316,VALID,0.191406,
2010-01-29, 01:07:04,VALID,1004.23,VALID,0,VALID,85.2222,VALID,0,VALID,25.2416,VALID,325,VALID,0.9,
2010-01-29, 01:08:04,VALID,1004.17,VALID,0,VALID,85.1536,VALID,0,VALID,25.2806,VALID,348,VALID,1.04883,
2010-01-29, 01:09:04,VALID,1004.17,VALID,0,VALID,85.0544,VALID,0,VALID,25.2806,VALID,348,VALID,0.769531,
2010-01-29, 01:10:04,VALID,1004.15,VALID,0,VALID,84.9323,VALID,0,VALID,25.2592,VALID,350,VALID,1.15039,
2010-01-29, 01:11:04,VALID,1004.15,VALID,0,VALID,85.001,VALID,0,VALID,25.2806,VALID,354,VALID,0.98125,
2010-01-29, 01:12:04,VALID,1004.14,VALID,0,VALID,85.062,VALID,0,VALID,25.2592,VALID,335,VALID,0.491016,
2010-01-29, 01:13:04,VALID,1004.15,VALID,0,VALID,85.1612,VALID,0,VALID,25.2611,VALID,333,VALID,0.539063,
2010-01-29, 01:14:04,VALID,1004.14,VALID,0,VALID,85.1765,VALID,0,VALID,25.2416,VALID,355,VALID,0.786719,
2010-01-29, 01:15:04,VALID,1004.13,VALID,0,VALID,85.2909,VALID,0,VALID,25.2221,VALID,340,VALID,0.43125,
2010-01-29, 01:16:04,VALID,1004.14,VALID,0,VALID,85.3824,VALID,0,VALID,25.2027,VALID,346,VALID,0.560547,
2010-01-29, 01:17:04,VALID,1004.14,VALID,0,VALID,85.1154,VALID,0,VALID,25.2221,VALID,355,VALID,0.869531,
2010-01-29, 01:18:04,VALID,1004.13,VALID,0,VALID,84.9781,VALID,0,VALID,25.2416,VALID,356,VALID,1.26445,
2010-01-29, 01:19:04,VALID,1004.11,VALID,0,VALID,84.856,VALID,0,VALID,25.2611,VALID,346,VALID,1.07539,
2010-01-29, 01:20:04,VALID,1004.11,VALID,0,VALID,84.9247,VALID,0,VALID,25.2416,VALID,2,VALID,0.533984,
2010-01-29, 01:21:04,VALID,1004.1,VALID,0,VALID,84.9323,VALID,0,VALID,25.2611,VALID,346,VALID,0.589063,
2010-01-29, 01:22:04,VALID,1004.06,VALID,0,VALID,84.9934,VALID,0,VALID,25.2202,VALID,358,VALID,0.239063,
2010-01-29, 01:23:04,VALID,1004.07,VALID,0,VALID,84.9018,VALID,0,VALID,25.2416,VALID,359,VALID,0.917188,
2010-01-29, 01:24:04,VALID,1004.05,VALID,0,VALID,84.9552,VALID,0,VALID,25.2221,VALID,349,VALID,0.480859,
2010-01-29, 01:25:04,VALID,1004.06,VALID,0,VALID,85.0696,VALID,0,VALID,25.2027,VALID,320,VALID,0.357812,
2010-01-29, 01:26:04,VALID,1004.04,VALID,0,VALID,85.207,VALID,0,VALID,25.1832,VALID,320,VALID,0.169531,
2010-01-29, 01:27:04,VALID,1004.08,VALID,0,VALID,85.0925,VALID,0,VALID,25.1637,VALID,356,VALID,0.781641,
2010-01-29, 01:28:04,VALID,1004.09,VALID,0,VALID,85.0925,VALID,0,VALID,25.1423,VALID,340,VALID,0.445703,
2010-01-29, 01:29:04,VALID,1004.13,VALID,0,VALID,85.1002,VALID,0,VALID,25.1229,VALID,354,VALID,0.387109,
2010-01-29, 01:30:04,VALID,1004.12,VALID,0,VALID,84.9247,VALID,0,VALID,25.1229,VALID,355,VALID,1.70508,
2010-01-29, 01:31:04,VALID,1004.12,VALID,0,VALID,84.8866,VALID,0,VALID,25.1442,VALID,349,VALID,0.542188,
2010-01-29, 01:32:04,VALID,1004.13,VALID,0,VALID,84.9247,VALID,0,VALID,25.1442,VALID,353,VALID,0.339844,
2010-01-29, 01:33:04,VALID,1004.1,VALID,0,VALID,84.8179,VALID,0,VALID,25.1442,VALID,358,VALID,0.630859,
2010-01-29, 01:34:04,VALID,1004.13,VALID,0,VALID,84.4593,VALID,0,VALID,25.1423,VALID,352,VALID,0.766797,
2010-01-29, 01:35:05,VALID,1004.12,VALID,0,VALID,83.994,VALID,0,VALID,25.2007,VALID,313,VALID,1.07187,
2010-01-29, 01:36:05,VALID,1004.08,VALID,0,VALID,83.643,VALID,0,VALID,25.2806,VALID,333,VALID,0.421484,
2010-01-29, 01:37:05,VALID,1004.11,VALID,0,VALID,83.4828,VALID,0,VALID,25.3195,VALID,1,VALID,1.34531,
2010-01-29, 01:38:05,VALID,1004.08,VALID,0,VALID,83.3303,VALID,0,VALID,25.3584,VALID,1,VALID,1.11328,
2010-01-29, 01:39:05,VALID,1004.07,VALID,0,VALID,83.0404,VALID,0,VALID,25.3974,VALID,350,VALID,1.10742,
2010-01-29, 01:40:05,VALID,1004.05,VALID,0,VALID,82.8802,VALID,0,VALID,25.4558,VALID,350,VALID,0.908203,
2010-01-29, 01:41:05,VALID,1004.03,VALID,0,VALID,82.9793,VALID,0,VALID,25.4363,VALID,6,VALID,0.16875,
2010-01-29, 01:42:05,VALID,1004.01,VALID,0,VALID,83.0404,VALID,0,VALID,25.4149,VALID,343,VALID,0.426953,
2010-01-29, 01:43:05,VALID,1004.03,VALID,0,VALID,83.1548,VALID,0,VALID,25.4169,VALID,354,VALID,0.721484,
2010-01-29, 01:44:05,VALID,1004.03,VALID,0,VALID,83.2082,VALID,0,VALID,25.3955,VALID,312,VALID,0.576953,
2010-01-29, 01:45:05,VALID,1004.01,VALID,0,VALID,83.3303,VALID,0,VALID,25.4169,VALID,329,VALID,0.314453,
2010-01-29, 01:46:05,VALID,1004.01,VALID,0,VALID,83.376,VALID,0,VALID,25.3779,VALID,305,VALID,0.964453,
2010-01-29, 01:47:05,VALID,1004.01,VALID,0,VALID,83.3531,VALID,0,VALID,25.376,VALID,355,VALID,0.954297,
2010-01-29, 01:48:05,VALID,1004.03,VALID,0,VALID,83.3989,VALID,0,VALID,25.376,VALID,354,VALID,0.630859,
2010-01-29, 01:49:05,VALID,1004.03,VALID,0,VALID,83.5515,VALID,0,VALID,25.3779,VALID,354,VALID,0.251953,
2010-01-29, 01:50:05,VALID,1004.02,VALID,0,VALID,83.7346,VALID,0,VALID,25.3798,VALID,354,VALID,0,
2010-01-29, 01:51:05,VALID,1003.98,VALID,0,VALID,83.7956,VALID,0,VALID,25.3,VALID,284,VALID,0.64375,
2010-01-29, 01:52:05,VALID,1004.02,VALID,0,VALID,83.9024,VALID,0,VALID,25.3,VALID,354,VALID,0.655469,
2010-01-29, 01:53:05,VALID,1004.02,VALID,0,VALID,84.055,VALID,0,VALID,25.2806,VALID,349,VALID,0.394922,
2010-01-29, 01:54:05,VALID,1004.02,VALID,0,VALID,84.1008,VALID,0,VALID,25.2611,VALID,13,VALID,0.344141,
2010-01-29, 01:55:05,VALID,1004.01,VALID,0,VALID,84.2152,VALID,0,VALID,25.2416,VALID,311,VALID,0.23125,
2010-01-29, 01:56:05,VALID,1004.01,VALID,0,VALID,84.3754,VALID,0,VALID,25.2221,VALID,312,VALID,0.332812,
2010-01-29, 01:57:05,VALID,1004.01,VALID,0,VALID,84.5585,VALID,0,VALID,25.1832,VALID,329,VALID,0.332422,
2010-01-29, 01:58:05,VALID,1003.99,VALID,0,VALID,84.6501,VALID,0,VALID,25.1423,VALID,344,VALID,1.35312,
2010-01-29, 01:59:05,VALID,1004.02,VALID,0,VALID,84.7569,VALID,0,VALID,25.1637,VALID,299,VALID,0.613281,
2010-01-29, 02:00:05,VALID,1004.01,VALID,0,VALID,84.8332,VALID,0,VALID,25.1442,VALID,317,VALID,0.75625,
2010-01-29, 02:01:05,VALID,1004.05,VALID,0,VALID,84.8332,VALID,0,VALID,25.1442,VALID,312,VALID,0.529297,
2010-01-29, 02:02:05,VALID,1004.04,VALID,0,VALID,84.9705,VALID,0,VALID,25.1248,VALID,304,VALID,0.133984,
2010-01-29, 02:03:05,VALID,1004.07,VALID,0,VALID,85.0773,VALID,0,VALID,25.1053,VALID,288,VALID,0.712109,
2010-01-29, 02:04:05,VALID,1004.06,VALID,0,VALID,85.1688,VALID,0,VALID,25.0858,VALID,307,VALID,0.1625,
2010-01-29, 02:05:05,VALID,1004.09,VALID,0,VALID,85.2451,VALID,0,VALID,25.0858,VALID,310,VALID,0.408594,
2010-01-29, 02:06:05,VALID,1004.14,VALID,0,VALID,85.1765,VALID,0,VALID,25.0877,VALID,303,VALID,0.685547,
2010-01-29, 02:07:05,VALID,1004.13,VALID,0,VALID,85.268,VALID,0,VALID,25.0858,VALID,280,VALID,0.696094,
2010-01-29, 02:08:05,VALID,1004.13,VALID,0,VALID,85.2985,VALID,0,VALID,25.0663,VALID,289,VALID,0.733203,
2010-01-29, 02:09:05,VALID,1004.15,VALID,0,VALID,85.268,VALID,0,VALID,25.0663,VALID,310,VALID,0.275,
2010-01-29, 02:10:05,VALID,1004.16,VALID,0,VALID,85.4206,VALID,0,VALID,25.0469,VALID,319,VALID,0.987109,
2010-01-29, 02:11:05,VALID,1004.13,VALID,0,VALID,85.4892,VALID,0,VALID,24.9866,VALID,297,VALID,0.537891,
2010-01-29, 02:12:05,VALID,1004.14,VALID,0,VALID,85.5732,VALID,0,VALID,25.0079,VALID,295,VALID,0.503125,
2010-01-29, 02:13:05,VALID,1004.13,VALID,0,VALID,85.6113,VALID,0,VALID,24.9885,VALID,293,VALID,0.281641,
2010-01-29, 02:14:05,VALID,1004.12,VALID,0,VALID,85.7868,VALID,0,VALID,24.9495,VALID,286,VALID,0.286328,
2010-01-29, 02:15:05,VALID,1004.15,VALID,0,VALID,85.9012,VALID,0,VALID,24.93,VALID,351,VALID,0.537891,
2010-01-29, 02:16:05,VALID,1004.17,VALID,0,VALID,86.0538,VALID,0,VALID,24.8911,VALID,345,VALID,0.4625,
2010-01-29, 02:17:05,VALID,1004.15,VALID,0,VALID,86.275,VALID,0,VALID,24.8522,VALID,350,VALID,0.391797,
2010-01-29, 02:18:05,VALID,1004.15,VALID,0,VALID,86.5039,VALID,0,VALID,24.8151,VALID,350,VALID,0.280469,
2010-01-29, 02:19:05,VALID,1004.15,VALID,0,VALID,86.8395,VALID,0,VALID,24.7159,VALID,350,VALID,0.419922,
2010-01-29, 02:20:05,VALID,1004.15,VALID,0,VALID,87.1218,VALID,0,VALID,24.6166,VALID,351,VALID,0.536328,
2010-01-29, 02:21:05,VALID,1004.13,VALID,0,VALID,87.4499,VALID,0,VALID,24.5796,VALID,353,VALID,0.254297,
2010-01-29, 02:22:05,VALID,1004.11,VALID,0,VALID,87.694,VALID,0,VALID,24.5814,VALID,6,VALID,0.208984,
2010-01-29, 02:23:05,VALID,1004.12,VALID,0,VALID,87.8008,VALID,0,VALID,24.5601,VALID,337,VALID,0.351563,
2010-01-29, 02:24:05,VALID,1004.09,VALID,0,VALID,87.8618,VALID,0,VALID,24.5388,VALID,349,VALID,0.567187,
2010-01-29, 02:25:05,VALID,1004.1,VALID,0,VALID,87.8618,VALID,0,VALID,24.5601,VALID,347,VALID,0.720703,
2010-01-29, 02:26:05,VALID,1004.12,VALID,0,VALID,87.816,VALID,0,VALID,24.5193,VALID,352,VALID,0.785547,
2010-01-29, 02:27:05,VALID,1004.09,VALID,0,VALID,87.8313,VALID,0,VALID,24.5017,VALID,348,VALID,0.501172,
2010-01-29, 02:28:05,VALID,1004.06,VALID,0,VALID,87.9839,VALID,0,VALID,24.4628,VALID,350,VALID,0.603125,
2010-01-29, 02:29:05,VALID,1004.06,VALID,0,VALID,88.1822,VALID,0,VALID,24.3441,VALID,353,VALID,0.412109,
2010-01-29, 02:30:05,VALID,1004.09,VALID,0,VALID,88.3882,VALID,0,VALID,24.2681,VALID,353,VALID,0.235156,
2010-01-29, 02:31:05,VALID,1004.1,VALID,0,VALID,88.7162,VALID,0,VALID,24.1494,VALID,353,VALID,0.166016,
2010-01-29, 02:32:05,VALID,1004.09,VALID,0,VALID,89.1282,VALID,0,VALID,24.1123,VALID,353,VALID,0.184375,
2010-01-29, 02:33:05,VALID,1004.1,VALID,0,VALID,89.502,VALID,0,VALID,24.0752,VALID,353,VALID,0.326172,
2010-01-29, 02:34:05,VALID,1004.09,VALID,0,VALID,89.9674,VALID,0,VALID,24.0557,VALID,353,VALID,0.442578,
2010-01-29, 02:35:05,VALID,1004.11,VALID,0,VALID,90.2878,VALID,0,VALID,24.0345,VALID,349,VALID,0.105078,
2010-01-29, 02:36:05,VALID,1004.13,VALID,0,VALID,90.387,VALID,0,VALID,24.0132,VALID,349,VALID,0.046875,
2010-01-29, 02:37:05,VALID,1004.11,VALID,0,VALID,90.5472,VALID,0,VALID,24.0345,VALID,349,VALID,0.295703,
2010-01-29, 02:38:05,VALID,1004.1,VALID,0,VALID,90.6158,VALID,0,VALID,24.0132,VALID,349,VALID,0.470703,
2010-01-29, 02:39:05,VALID,1004.12,VALID,0,VALID,90.6387,VALID,0,VALID,24.0947,VALID,348,VALID,0.315625,
2010-01-29, 02:40:05,VALID,1004.15,VALID,0,VALID,90.5853,VALID,0,VALID,24.0716,VALID,348,VALID,0.474219,
2010-01-29, 02:41:05,VALID,1004.16,VALID,0,VALID,90.4862,VALID,0,VALID,24.0716,VALID,348,VALID,0.437891,
2010-01-29, 02:42:05,VALID,1004.15,VALID,0,VALID,90.3641,VALID,0,VALID,24.091,VALID,348,VALID,0.3,
2010-01-29, 02:43:05,VALID,1004.15,VALID,0,VALID,90.2802,VALID,0,VALID,24.1123,VALID,348,VALID,0.362109,
2010-01-29, 02:44:05,VALID,1004.17,VALID,0,VALID,90.1963,VALID,0,VALID,24.0929,VALID,352,VALID,0.421875,
2010-01-29, 02:45:05,VALID,1004.19,VALID,0,VALID,90.3107,VALID,0,VALID,24.0929,VALID,345,VALID,0.563672,
2010-01-29, 02:46:05,VALID,1004.16,VALID,0,VALID,90.3259,VALID,0,VALID,24.1318,VALID,344,VALID,0.344922,
2010-01-29, 02:47:05,VALID,1004.19,VALID,0,VALID,90.2268,VALID,0,VALID,24.13,VALID,358,VALID,0.23125,
2010-01-29, 02:48:05,VALID,1004.19,VALID,0,VALID,90.0894,VALID,0,VALID,24.1707,VALID,358,VALID,0,
2010-01-29, 02:49:05,VALID,1004.21,VALID,0,VALID,90.0666,VALID,0,VALID,24.1902,VALID,358,VALID,0.324609,
2010-01-29, 02:50:05,VALID,1004.17,VALID,0,VALID,90.0284,VALID,0,VALID,24.2097,VALID,358,VALID,0,
2010-01-29, 02:51:05,VALID,1004.15,VALID,0,VALID,90.0208,VALID,0,VALID,24.2078,VALID,296,VALID,0.207031,
2010-01-29, 02:52:05,VALID,1004.16,VALID,0,VALID,89.8377,VALID,0,VALID,24.2681,VALID,344,VALID,0.59375,
2010-01-29, 02:53:05,VALID,1004.13,VALID,0,VALID,89.5859,VALID,0,VALID,24.307,VALID,344,VALID,0.0046875,
2010-01-29, 02:54:05,VALID,1004.13,VALID,0,VALID,89.3571,VALID,0,VALID,24.3052,VALID,343,VALID,0.05,
2010-01-29, 02:55:05,VALID,1004.12,VALID,0,VALID,89.2198,VALID,0,VALID,24.3246,VALID,336,VALID,0,
2010-01-29, 02:56:05,VALID,1004.13,VALID,0,VALID,89.0748,VALID,0,VALID,24.3246,VALID,336,VALID,0.166406,
2010-01-29, 02:57:05,VALID,1004.11,VALID,0,VALID,88.9451,VALID,0,VALID,24.3654,VALID,340,VALID,0.483203,
2010-01-29, 02:58:05,VALID,1004.13,VALID,0,VALID,88.8002,VALID,0,VALID,24.3849,VALID,341,VALID,0.661719,
2010-01-29, 02:59:05,VALID,1004.09,VALID,0,VALID,88.6628,VALID,0,VALID,24.383,VALID,344,VALID,0.263281,
2010-01-29, 03:00:05,VALID,1004.11,VALID,0,VALID,88.5408,VALID,0,VALID,24.383,VALID,344,VALID,0.355859,
2010-01-29, 03:01:05,VALID,1004.1,VALID,0,VALID,88.495,VALID,0,VALID,24.3617,VALID,333,VALID,0.330078,
2010-01-29, 03:02:05,VALID,1004.1,VALID,0,VALID,88.495,VALID,0,VALID,24.4043,VALID,338,VALID,0.580469,
2010-01-29, 03:03:05,VALID,1004.08,VALID,0,VALID,88.4645,VALID,0,VALID,24.4025,VALID,342,VALID,0.470703,
2010-01-29, 03:04:05,VALID,1004.1,VALID,0,VALID,88.3806,VALID,0,VALID,24.422,VALID,343,VALID,0.407422,
2010-01-29, 03:05:05,VALID,1004.11,VALID,0,VALID,88.3043,VALID,0,VALID,24.422,VALID,352,VALID,0.208984,
2010-01-29, 03:06:05,VALID,1004.09,VALID,0,VALID,88.2127,VALID,0,VALID,24.4414,VALID,347,VALID,0.509766,
2010-01-29, 03:07:05,VALID,1004.1,VALID,0,VALID,88.167,VALID,0,VALID,24.4414,VALID,343,VALID,0.184375,
2010-01-29, 03:08:05,VALID,1004.11,VALID,0,VALID,88.0907,VALID,0,VALID,24.4609,VALID,343,VALID,0.369141,
2010-01-29, 03:09:05,VALID,1004.12,VALID,0,VALID,88.022,VALID,0,VALID,24.4414,VALID,343,VALID,0.341406,
2010-01-29, 03:10:05,VALID,1004.11,VALID,0,VALID,87.9305,VALID,0,VALID,24.4628,VALID,343,VALID,0.414453,
2010-01-29, 03:11:05,VALID,1004.08,VALID,0,VALID,87.9,VALID,0,VALID,24.422,VALID,342,VALID,0.680078,
2010-01-29, 03:12:05,VALID,1004.07,VALID,0,VALID,88.0144,VALID,0,VALID,24.383,VALID,344,VALID,0.586328,
2010-01-29, 03:13:05,VALID,1004.1,VALID,0,VALID,88.1517,VALID,0,VALID,24.383,VALID,345,VALID,0.693359,
2010-01-29, 03:14:05,VALID,1004.08,VALID,0,VALID,88.0296,VALID,0,VALID,24.4043,VALID,345,VALID,0.6875,
2010-01-29, 03:15:05,VALID,1004.02,VALID,0,VALID,87.8618,VALID,0,VALID,24.422,VALID,346,VALID,0.492188,
2010-01-29, 03:16:05,VALID,1004.03,VALID,0,VALID,87.6863,VALID,0,VALID,24.422,VALID,347,VALID,0.667578,
2010-01-29, 03:17:05,VALID,1004.05,VALID,0,VALID,87.5261,VALID,0,VALID,24.4804,VALID,344,VALID,0.173828,
2010-01-29, 03:18:05,VALID,1004.05,VALID,0,VALID,87.3736,VALID,0,VALID,24.4998,VALID,350,VALID,0.726563,
2010-01-29, 03:19:05,VALID,1004.06,VALID,0,VALID,87.0608,VALID,0,VALID,24.5582,VALID,346,VALID,0.873828,
2010-01-29, 03:20:05,VALID,1004.07,VALID,0,VALID,86.7099,VALID,0,VALID,24.6361,VALID,344,VALID,0.636719,
2010-01-29, 03:21:05,VALID,1004.07,VALID,0,VALID,86.4734,VALID,0,VALID,24.6945,VALID,341,VALID,0.517187,
2010-01-29, 03:22:05,VALID,1004.07,VALID,0,VALID,86.3284,VALID,0,VALID,24.7529,VALID,357,VALID,0.640234,
2010-01-29, 03:23:05,VALID,1004.04,VALID,0,VALID,86.1301,VALID,0,VALID,24.7724,VALID,325,VALID,0.564453,
2010-01-29, 03:24:05,VALID,1004.03,VALID,0,VALID,85.9393,VALID,0,VALID,24.8308,VALID,343,VALID,0.89375,
2010-01-29, 03:25:05,VALID,1004,VALID,0,VALID,85.8096,VALID,0,VALID,24.8697,VALID,351,VALID,0.493359,
2010-01-29, 03:26:05,VALID,1003.96,VALID,0,VALID,85.5579,VALID,0,VALID,24.8892,VALID,346,VALID,0.696875,
2010-01-29, 03:27:05,VALID,1003.96,VALID,0,VALID,85.3977,VALID,0,VALID,24.9068,VALID,306,VALID,0.796875,
2010-01-29, 03:28:05,VALID,1003.97,VALID,0,VALID,85.2527,VALID,0,VALID,24.9652,VALID,359,VALID,0.886719,
2010-01-29, 03:29:05,VALID,1003.98,VALID,0,VALID,85.0773,VALID,0,VALID,25.0274,VALID,348,VALID,0.838281,
2010-01-29, 03:30:05,VALID,1003.97,VALID,0,VALID,84.9552,VALID,0,VALID,25.0644,VALID,355,VALID,0.907031,
2010-01-29, 03:31:05,VALID,1004.02,VALID,0,VALID,84.9171,VALID,0,VALID,25.0663,VALID,351,VALID,1.02852,
2010-01-29, 03:32:05,VALID,1004,VALID,0,VALID,84.8866,VALID,0,VALID,25.1034,VALID,323,VALID,0.800391,
2010-01-29, 03:33:05,VALID,1003.98,VALID,0,VALID,84.8179,VALID,0,VALID,25.1034,VALID,358,VALID,1.32891,
2010-01-29, 03:34:05,VALID,1004.02,VALID,0,VALID,84.7187,VALID,0,VALID,25.1442,VALID,3,VALID,0.457031,
2010-01-29, 03:35:05,VALID,1004.04,VALID,0,VALID,84.7187,VALID,0,VALID,25.1229,VALID,348,VALID,0.660937,
2010-01-29, 03:36:05,VALID,1004.02,VALID,0,VALID,84.8484,VALID,0,VALID,25.1034,VALID,352,VALID,0.589063,
2010-01-29, 03:37:05,VALID,1004.03,VALID,0,VALID,84.9018,VALID,0,VALID,25.1229,VALID,1,VALID,1.21289,
2010-01-29, 03:38:05,VALID,1004.03,VALID,0,VALID,84.8026,VALID,0,VALID,25.1618,VALID,350,VALID,0.971484,
2010-01-29, 03:39:05,VALID,1004.01,VALID,0,VALID,84.6958,VALID,0,VALID,25.1618,VALID,354,VALID,0.600781,
2010-01-29, 03:40:05,VALID,1003.99,VALID,0,VALID,84.7416,VALID,0,VALID,25.1423,VALID,333,VALID,0.357422,
2010-01-29, 03:41:05,VALID,1003.98,VALID,0,VALID,84.7797,VALID,0,VALID,25.1034,VALID,340,VALID,0.882813,
2010-01-29, 03:42:05,VALID,1003.97,VALID,0,VALID,84.795,VALID,0,VALID,25.1034,VALID,351,VALID,1.05078,
2010-01-29, 03:43:05,VALID,1003.98,VALID,0,VALID,84.9628,VALID,0,VALID,25.1053,VALID,356,VALID,0.728906,
2010-01-29, 03:44:05,VALID,1003.98,VALID,0,VALID,85.1307,VALID,0,VALID,25.0663,VALID,344,VALID,0.246484,